Regional Weather Roundup
Issued by NWS Sioux Falls, SD

Home | Current Version | Previous Version | Text Only | Print | Product List | Glossary On
Versions: 1 2 3 4 5 6 7 8 9 10 11 12 13 14 15 16 17 18 19 20 21 22 23 24 25 26 27 28 29 30 31 32 33 34 35 36 37 38 39 40 41 42 43 44 45 46 47 48 49 50
000
ASUS43 KFSD 070202
RWRFSD

WEATHER ROUNDUP FOR SE SOUTH DAKOTA/SW MINNESOTA/NW IOWA
NATIONAL WEATHER SERVICE SIOUX FALLS SD
800 PM CST SAT FEB 06 2016

NOTE: "FAIR" INDICATES FEW OR NO CLOUDS BELOW 12,000 FEET WITH NO
SIGNIFICANT WEATHER AND OR OBSTRUCTIONS TO VISIBILITY.


SDZ038>040-050-052>070-070300-
SOUTHEAST SOUTH DAKOTA

CITY           SKY/WX    TMP DP  RH WIND       PRES   REMARKS
BROOKINGS      CLOUDY    31  28  89 S6        29.81S WCI  25
CHAMBERLAIN    NOT AVBL
HURON          CLOUDY    39  31  72 W8        29.80S
MADISON        MOCLDY    34  34 100 SW12      29.82R WCI  25
MITCHELL       CLOUDY    42  31  64 W14       29.84R
SIOUX FALLS    CLOUDY    33  26  75 SW9       29.83F WCI  25
WINNER         CLOUDY    42  29  59 NW23      29.90R
YANKTON        CLOUDY    39  27  60 SW13      29.84F
$$

MNZ071-072-080-081-089-090-097-098-070300-
SOUTHWEST MINNESOTA

CITY           SKY/WX    TMP DP  RH WIND       PRES   REMARKS
FAIRMONT       CLOUDY    32  25  74 S13       29.86S WCI  22
JACKSON        PTCLDY    34  27  75 SW17      29.86S WCI  23
LUVERNE        CLOUDY    30  27  86 S10       29.84F WCI  21
MARSHALL       CLOUDY    35  27  72 SW20G25   29.81R WCI  24
MONTEVIDEO     CLOUDY    36  30  80 W8        29.81S
PIPESTONE      CLOUDY    32  21  64 SW10      29.82S WCI  24
REDWOOD FALLS  CLOUDY    35  28  75 SW15      29.80F WCI  25
TRACY          CLOUDY    35  28  78 SW20      29.81S WCI  23
WINDOM         MOCLDY    34  28  80 SW14      29.84F WCI  24
WORTHINGTON    CLOUDY    30  25  80 SW21      29.84F WCI  17
$$

IAZ001>003-012>014-020>022-031-032-NEZ013-014-SDZ071-070300-
NORTHWEST IOWA

CITY           SKY/WX    TMP DP  RH WIND       PRES   REMARKS
ESTHERVILLE    CLOUDY    33  26  75 SW18      29.86F WCI  22
SIOUX CITY     CLOUDY    34  26  72 S7        29.92F WCI  28
SPENCER        CLOUDY    33  25  72 SW18      29.87F WCI  22
STORM LAKE     CLOUDY    32  28  86 SW16      29.92S WCI  21
$$

ABBREVIATIONS USED IN REMARKS
   TC - TEMPERATURE IN CELSIUS
  WCI - WIND CHILL INDEX
   HX - HEAT INDEX
  VSB - VISIBILITY




USA.gov is the U.S. government's official web portal to all federal, state and local government web resources and services.